FW5359 Weather Reports


Display with metric or nautical units.
time (UTC)temp
F
wind
direction
speed
MPH
gust
MPH
rain 1hr
in
rain 24hr
in
rain mn
in
humidity
%
barometer
mb
20260504204346 78 232 3.0 11.0 0.00 0.00 0.00 67 1012.7
20260504203847 79 235 3.0 8.0 0.00 0.00 0.00 67 1012.8
20260504203349 79 209 3.0 7.0 0.00 0.00 0.00 67 1012.9
20260504202845 79 252 3.0 8.0 0.00 0.00 0.00 67 1013.0
20260504202345 79 269 3.0 10.0 0.00 0.00 0.00 67 1013.1
20260504201844 79 197 3.0 10.0 0.00 0.00 0.00 66 1013.1
20260504201338 79 204 3.0 9.0 0.00 0.00 0.00 67 1013.2
20260504200832 78 250 2.0 7.0 0.00 0.00 0.00 67 1013.2
20260504200325 78 190 2.0 7.0 0.00 0.00 0.00 68 1013.3
20260504195819 78 190 2.0 9.0 0.00 0.00 0.00 68 1013.5
20260504195314 78 205 2.0 9.0 0.00 0.00 0.00 68 1013.6
20260504195038 78 234 2.0 9.0 0.00 0.00 0.00 68 1013.6
20260504194302 78 163 3.0 9.0 0.00 0.00 0.00 68 1013.5
20260504194026 78 213 3.0 9.0 0.00 0.00 0.00 66 1013.7
20260504193520 78 171 3.0 8.0 0.00 0.00 0.00 66 1013.7
20260504192744 78 169 3.0 9.0 0.00 0.00 0.00 68 1013.7
20260504192238 78 236 3.0 9.0 0.00 0.00 0.00 67 1013.7
20260504191732 78 202 3.0 9.0 0.00 0.00 0.00 66 1013.8
20260504191226 79 219 2.0 10.0 0.00 0.00 0.00 65 1013.9
20260504190214 79 296 2.0 8.0 0.00 0.00 0.00 67 1013.9
20260504185708 78 219 3.0 8.0 0.00 0.00 0.00 68 1014.1
20260504185201 77 205 3.0 8.0 0.00 0.00 0.00 68 1014.1
20260504184422 78 225 3.0 8.0 0.00 0.00 0.00 68 1014.1
20260504183916 77 227 3.0 11.0 0.00 0.00 0.00 68 1014.2
20260504183410 77 160 4.0 11.0 0.00 0.00 0.00 69 1014.3
20260504182632 78 207 3.0 9.0 0.00 0.00 0.00 67 1014.6
20260504182126 78 207 3.0 9.0 0.00 0.00 0.00 68 1014.5
20260504181619 78 148 3.0 9.0 0.00 0.00 0.00 68 1014.5
20260504181114 77 235 2.0 9.0 0.00 0.00 0.00 68 1014.6
20260504180608 77 240 2.0 9.0 0.00 0.00 0.00 69 1014.7
20260504175556 77 255 3.0 9.0 0.00 0.00 0.00 68 1014.8
20260504175049 77 223 3.0 16.0 0.00 0.00 0.00 69 1014.8
20260504174544 77 173 3.0 16.0 0.00 0.00 0.00 69 1014.9
20260504174038 77 207 3.0 9.0 0.00 0.00 0.00 68 1014.9
20260504173532 77 210 3.0 11.0 0.00 0.00 0.00 69 1015.0
20260504173026 76 215 3.0 11.0 0.00 0.00 0.00 70 1015.0
20260504172753 76 215 3.0 11.0 0.00 0.00 0.00 71 1015.0
20260504172022 76 175 3.0 11.0 0.00 0.00 0.00 70 1015.0
20260504171522 75 248 3.0 9.0 0.00 0.00 0.00 70 1015.3
20260504171022 75 196 2.0 8.0 0.00 0.00 0.00 71 1015.2
20260504170522 74 219 2.0 9.0 0.00 0.00 0.00 73 1015.3
20260504160243 72 199 3.0 9.0 0.00 0.00 0.00 75 1015.7
20260504151009 68 321 2.0 6.0 0.00 0.00 0.00 82 1016.3
20260504150509 67 204 2.0 9.0 0.00 0.00 0.00 82 1016.2
20260504141219 65 177 1.0 7.0 0.00 0.00 0.00 83 1016.2
20260504140443 65 203 1.0 5.0 0.00 0.00 0.00 83 1016.1
20260504130602 63 180 1.0 3.0 0.00 0.00 0.00 83 1016.1
20260504120218 61 178 0.0 0.0 0.00 0.00 0.00 85 1015.8
20260504110613 62 178 0.0 3.0 0.00 0.00 0.00 82 1015.5
20260504110107 62 178 0.0 3.0 0.00 0.00 0.00 82 1015.6
20260504100500 62 178 1.0 4.0 0.00 0.00 0.00 81 1016.1
20260504081943 64 211 0.0 3.0 0.00 0.00 0.00 78 1016.6
20260504081444 64 211 0.0 3.0 0.00 0.00 0.00 78 1016.6
20260504080944 64 211 1.0 7.0 0.00 0.00 0.00 78 1016.6
20260504080441 64 211 1.0 7.0 0.00 0.00 0.00 78 1016.6
20260504050255 67 216 2.0 12.0 0.00 0.00 0.00 69 1018.7
20260504045754 67 145 2.0 12.0 0.00 0.00 0.00 68 1018.6
20260504045525 67 115 2.0 8.0 0.00 0.00 0.00 68 1018.5
20260504044754 67 153 3.0 10.0 0.00 0.00 0.00 67 1018.4
20260504044253 67 148 3.0 10.0 0.00 0.00 0.00 67 1018.5
20260504043754 67 157 2.0 9.0 0.00 0.00 0.00 66 1018.5
20260504043255 68 159 2.0 12.0 0.00 0.00 0.00 66 1018.6
20260504043024 68 160 2.0 12.0 0.00 0.00 0.00 65 1018.7
20260504042254 68 153 2.0 9.0 0.00 0.00 0.00 65 1018.6
20260504041754 68 182 1.0 9.0 0.00 0.00 0.00 64 1018.5
20260504041252 68 141 1.0 9.0 0.00 0.00 0.00 64 1018.5
20260504040752 69 161 2.0 10.0 0.00 0.00 0.00 63 1018.6
20260504040252 69 154 2.0 10.0 0.00 0.00 0.00 63 1018.5
20260504035747 69 188 2.0 8.0 0.00 0.00 0.00 63 1018.7
20260504035249 69 152 1.0 7.0 0.00 0.00 0.00 63 1018.6
20260504034751 69 151 1.0 7.0 0.00 0.00 0.00 63 1018.7
20260504034247 68 161 1.0 7.0 0.00 0.00 0.00 63 1018.6
20260504033748 68 173 1.0 7.0 0.00 0.00 0.00 62 1018.6
20260504033251 68 185 0.0 4.0 0.00 0.00 0.00 62 1018.6
20260504032746 68 185 1.0 4.0 0.00 0.00 0.00 61 1018.6
20260504032516 68 185 0.0 4.0 0.00 0.00 0.00 61 1018.6
20260504031745 67 186 0.0 4.0 0.00 0.00 0.00 60 1018.5
20260504031240 67 186 0.0 3.0 0.00 0.00 0.00 60 1018.5
20260504030733 67 186 0.0 3.0 0.00 0.00 0.00 59 1018.5
20260504030227 67 186 0.0 0.0 0.00 0.00 0.00 59 1018.4
20260504025721 67 186 0.0 0.0 0.00 0.00 0.00 59 1018.4
20260504025214 67 186 0.0 0.0 0.00 0.00 0.00 58 1018.4
20260504024709 68 186 0.0 0.0 0.00 0.00 0.00 60 1018.3
20260504024204 68 186 0.0 0.0 0.00 0.00 0.00 57 1018.2
20260504023657 68 186 0.0 0.0 0.00 0.00 0.00 56 1018.2
20260504023151 68 186 0.0 0.0 0.00 0.00 0.00 56 1018.3
20260504022645 69 186 0.0 0.0 0.00 0.00 0.00 57 1018.3
20260504022139 69 186 0.0 0.0 0.00 0.00 0.00 56 1018.3
20260504021633 69 186 0.0 0.0 0.00 0.00 0.00 56 1018.4
20260504021127 70 186 0.0 0.0 0.00 0.00 0.00 55 1018.4
20260504020852 70 186 0.0 0.0 0.00 0.00 0.00 54 1018.4
20260504020115 70 186 0.0 0.0 0.00 0.00 0.00 53 1018.3
20260504015841 71 186 0.0 0.0 0.00 0.00 0.00 52 1018.3
20260504015103 71 186 0.0 0.0 0.00 0.00 0.00 52 1018.2
20260504014557 71 186 0.0 0.0 0.00 0.00 0.00 52 1018.2
20260504014051 71 186 0.0 0.0 0.00 0.00 0.00 51 1018.2
20260504013545 72 186 0.0 0.0 0.00 0.00 0.00 51 1018.1
20260504013039 72 186 0.0 0.0 0.00 0.00 0.00 50 1017.9
20260504012532 72 186 0.0 2.0 0.00 0.00 0.00 50 1017.9
20260504012027 72 186 0.0 2.0 0.00 0.00 0.00 50 1017.8
20260504011521 72 186 1.0 3.0 0.00 0.00 0.00 49 1017.8
20260504011015 73 186 0.0 4.0 0.00 0.00 0.00 49 1017.8
20260504010508 73 186 0.0 4.0 0.00 0.00 0.00 49 1017.8
20260504010003 73 186 1.0 3.0 0.00 0.00 0.00 49 1017.8
20260504005458 73 186 1.0 3.0 0.00 0.00 0.00 49 1017.7
20260504004952 73 186 0.0 3.0 0.00 0.00 0.00 48 1017.8
20260504004446 74 186 0.0 2.0 0.00 0.00 0.00 48 1017.8
20260504003939 74 186 0.0 4.0 0.00 0.00 0.00 48 1017.8
20260504003433 74 186 0.0 4.0 0.00 0.00 0.00 47 1017.9
20260504003157 74 186 1.0 4.0 0.00 0.00 0.00 47 1018.1
20260504002421 74 186 1.0 4.0 0.00 0.00 0.00 46 1018.1
20260504001915 74 186 1.0 5.0 0.00 0.00 0.00 46 1018.1
20260504001409 75 186 1.0 9.0 0.00 0.00 0.00 45 1017.9
20260504000902 75 173 1.0 9.0 0.00 0.00 0.00 45 1018.1
20260504000357 76 210 2.0 6.0 0.00 0.00 0.00 44 1018.1
20260503235851 76 127 2.0 7.0 0.00 0.00 0.00 45 1018.2
20260503235345 76 186 2.0 7.0 0.00 0.00 0.00 44 1018.1
20260503234839 76 168 3.0 9.0 0.00 0.00 0.00 44 1018.3
20260503234603 76 163 2.0 9.0 0.00 0.00 0.00 43 1018.2
20260503233827 76 192 2.0 9.0 0.00 0.00 0.00 43 1018.3
20260503233321 76 173 2.0 9.0 0.00 0.00 0.00 42 1018.4
20260503232815 77 152 2.0 8.0 0.00 0.00 0.00 42 1018.6
20260503232315 77 144 2.0 9.0 0.00 0.00 0.00 41 1018.6
20260503231816 77 130 2.0 9.0 0.00 0.00 0.00 41 1018.6
20260503231315 77 165 2.0 8.0 0.00 0.00 0.00 41 1018.6
20260503230813 77 107 3.0 9.0 0.00 0.00 0.00 41 1018.5
20260503230311 77 161 2.0 9.0 0.00 0.00 0.00 41 1018.5
20260503225811 78 149 2.0 9.0 0.00 0.00 0.00 41 1018.7
20260503225311 78 146 2.0 9.0 0.00 0.00 0.00 40 1018.8
20260503224814 78 163 2.0 7.0 0.00 0.00 0.00 39 1018.6
20260503224539 78 169 2.0 7.0 0.00 0.00 0.00 40 1018.7
20260503223809 77 105 2.0 6.0 0.00 0.00 0.00 40 1018.8
20260503223312 77 81 3.0 8.0 0.00 0.00 0.00 40 1018.7
20260503222811 77 153 4.0 15.0 0.00 0.00 0.00 40 1018.8
20260503222544 77 115 4.0 15.0 0.00 0.00 0.00 40 1018.7
20260503221807 78 91 3.0 13.0 0.00 0.00 0.00 40 1018.9
20260503221539 78 86 3.0 9.0 0.00 0.00 0.00 40 1019.0
20260503221038 78 132 3.0 8.0 0.00 0.00 0.00 40 1019.0
20260503220305 78 200 3.0 10.0 0.00 0.00 0.00 39 1019.2
20260503215805 78 124 3.0 10.0 0.00 0.00 0.00 40 1019.3
20260503215304 78 199 2.0 9.0 0.00 0.00 0.00 40 1019.3
20260503214805 78 232 3.0 9.0 0.00 0.00 0.00 40 1019.4
20260503214535 78 184 3.0 9.0 0.00 0.00 0.00 40 1019.5
20260503214035 78 211 2.0 9.0 0.00 0.00 0.00 40 1019.7
20260503213305 78 190 2.0 9.0 0.00 0.00 0.00 40 1019.8
20260503211803 77 136 3.0 9.0 0.00 0.00 0.00 40 1019.8
20260503210801 77 121 3.0 9.0 0.00 0.00 0.00 40 1020.1
20260503210301 78 165 3.0 9.0 0.00 0.00 0.00 39 1020.0
20260503205800 77 153 3.0 9.0 0.00 0.00 0.00 41 1020.1
20260503204800 78 137 3.0 14.0 0.00 0.00 0.00 40 1020.3